sat.trackr.live / text

‹ back to catalog

STARLINK-30380

NORAD 57780 · 2023-134K

PAYLOAD ACTIVE UNKNOWN

§ Identity

Operator
Country
US
Launch date
2023-09-04
Launch site
AFETR
Launch vehicle
Mass (kg)
RCS (m²)

Purposes: comms

External: N2YO · Heavens-Above · Gunter

§ Orbital elements

Epoch: 2026-05-24T23:16:09.857856Z

Period
94.27 min
Inclination
43.0020°
Eccentricity
0.0001177
Mean motion
15.27580055 rev/d
Perigee alt
482.2 km
Apogee alt
483.9 km
Semi-major
6,861.2 km
B*
3.7434e-5
RAAN
123.6186°
Arg perigee
271.2454°
Mean anomaly
88.8262°
Rev number
15,117

§ Raw data

STARLINK-303801 57780U 23134K   26144.96955854  .00000768  00000+0  37434-4 0  99932 57780  43.0020 123.6186 0001177 271.2454  88.8262 15.27580055151173

JSON: /api/v1/satellites/57780 · /tle

For live sub-satellite position, see the globe view (requires WebGL).

§ Visibility from observer

Set your observer location to see the next 7 days of passes ≥ 10°. The values pass through the URL so the page stays shareable.

No JS? Fill the form by hand. The geolocation button needs JavaScript.